Probability
45 13 3 13 61 61 3 0 10 16 26 32 45 61 68 84 71 84 90 65 61 84 97 100 100 100 100 100 100 100 100 100 100 100 100 100 100 100 100 100 100 100 100 100 100 94 100 97 97
35 3 10 26 52 0 0 0 3 10 10 13 16 26 39 61 71 87 97 84 74 84 97 97 100 100 100 100 100 100 100 100 100 100 100 100 100 100 100 100 100 100 100 100 90 94 94 97 94
10 3 19 45 19 3 3 0 10 0 6 6 13 35 55 71 81 94 97 84 71 94 100 100 100 100 100 100 100 100 100 100 100 100 100 100 100 100 100 100 100 100 100 97 94 97 94 94 97
10 13 42 19 6 6 3 10 19 13 6 6 13 45 84 100 97 100 100 71 68 97 97 100 100 100 100 100 100 100 100 100 100 100 100 100 100 100 100 100 100 100 100 97 97 100 94 94 97
6 16 6 6 0 3 10 19 29 19 16 23 16 45 87 100 100 100 100 74 81 87 97 100 100 100 100 100 100 100 100 100 100 100 100 100 100 100 100 100 100 100 100 100 100 100 97 94 94
6 6 3 0 0 10 26 45 39 35 26 29 35 65 94 100 100 100 97 87 81 81 94 100 100 100 100 100 100 100 100 100 100 100 100 100 100 100 100 100 100 100 100 100 100 100 100 97 94
10 0 0 0 3 6 32 55 58 58 45 52 52 74 90 100 100 100 100 94 84 81 90 100 100 100 100 100 100 100 100 100 100 100 100 100 100 100 100 100 100 100 100 100 100 100 100 100 97
3 0 0 0 0 6 45 58 77 71 74 77 74 84 84 100 100 100 100 100 94 94 90 97 94 97 94 97 100 100 100 100 100 100 100 100 100 100 100 100 100 100 100 100 100 100 100 100 97
3 0 0 0 0 13 39 52 74 84 90 97 100 100 97 100 100 100 100 100 97 97 94 90 87 97 97 97 97 100 100 97 94 94 94 97 100 100 100 97 100 100 100 100 100 100 97 97 97
0 0 0 0 3 13 35 52 71 84 94 94 100 100 100 97 97 94 90 87 90 90 87 94 94 97 87 74 100 100 97 94 90 94 87 84 94 94 77 87 90 90 94 97 94 94 94 97 94
0 0 0 0 3 13 32 55 68 77 84 94 97 97 97 97 90 84 71 81 74 74 87 87 84 90 90 90 87 94 94 97 87 84 68 81 77 74 71 77 77 71 74 81 84 90 90 94 100
0 0 0 10 19 16 26 65 68 84 94 94 94 97 100 94 94 84 84 87 84 84 84 84 94 97 90 84 81 77 74 68 58 61 61 58 68 68 68 71 68 65 68 71 68 81 77 77 84
0 0 10 16 32 29 45 71 81 94 94 94 94 94 100 97 94 90 97 97 90 84 87 87 87 90 84 77 71 65 61 52 48 52 48 45 48 52 42 48 48 55 52 55 55 65 65 74 68
0 3 26 45 52 61 84 87 94 97 94 94 94 97 97 94 90 97 97 94 94 94 94 87 77 77 74 74 68 52 32 45 29 29 19 29 29 42 35 42 45 39 32 35 39 42 48 55 61
10 10 39 48 68 74 81 87 100 97 97 97 97 97 94 90 90 90 97 90 87 84 84 74 71 68 61 52 39 23 16 16 6 6 13 13 16 19 23 19 19 19 23 23 19 23 23 29 35
3 3 3 45 77 84 77 65 100 97 100 97 97 97 94 90 90 94 87 81 77 71 58 48 32 45 45 35 26 3 3 6 3 3 3 10 10 10 10 6 6 10 10 10 10 13 16 16 26
3 0 0 32 55 68 74 74 97 97 94 87 87 90 87 81 81 81 71 68 65 52 45 35 32 29 13 13 6 3 3 3 0 0 0 3 3 3 6 3 6 10 10 10 10 10 10 10 16
0 0 0 10 26 42 48 74 97 97 81 77 68 68 68 61 65 61 58 52 45 35 32 29 32 19 10 3 6 3 3 0 0 0 0 0 0 0 0 0 3 0 3 3 3 3 3 3 3
0 0 0 10 19 26 42 55 84 77 74 65 55 52 52 52 45 42 32 29 32 32 29 19 6 13 10 0 0 0 0 0 0 0 0 0 0 0 0 0 0 0 0 0 0 3 3 3 3
0 0 0 19 35 23 35 58 65 65 61 65 52 35 39 32 23 26 29 23 26 29 35 29 23 13 16 10 10 6 3 0 0 0 0 0 0 0 0 0 0 0 0 0 0 0 0 0 0
0 0 0 3 23 23 26 35 48 52 42 39 39 29 29 23 23 26 29 32 35 32 32 23 23 19 19 13 13 3 6 3 0 0 0 0 0 0 0 0 0 0 0 0 0 0 0 0 0
0 0 0 0 10 10 3 0 32 39 35 32 29 35 23 26 23 26 42 45 42 42 35 35 35 39 32 23 16 13 10 3 3 3 0 0 0 0 0 0 0 0 0 0 0 0 0 0 0
0 0 0 0 0 0 0 0 0 10 13 29 29 26 16 16 16 32 42 48 45 39 39 35 42 42 39 26 26 16 6 3 3 3 0 0 0 0 0 0 0 0 0 0 0 0 0 0 0
0 0 0 0 0 0 0 0 0 0 0 6 13 23 16 16 23 39 42 45 48 45 39 32 45 48 29 23 13 13 6 6 6 0 0 0 0 0 0 0 0 0 0 0 0 0 0 0 0
0 0 0 0 0 0 0 0 0 0 0 0 0 10 16 16 16 26 42 52 45 45 39 35 29 26 13 6 3 3 3 3 0 0 0 0 0 0 0 0 0 0 0 0 0 0 0 0 0
0 0 0 0 0 0 0 0 0 0 0 0 0 0 0 3 6 13 26 35 39 32 19 13 10 10 10 3 3 0 0 0 0 0 0 0 0 0 0 0 0 0 0 0 0 0 0 0 0
0 0 0 0 0 0 0 0 0 0 0 0 0 0 0 0 6 10 23 23 16 13 10 10 10 10 6 0 0 0 0 0 0 0 0 0 0 0 0 0 0 0 0 0 0 0 0 0 0
0 0 0 0 0 0 0 0 0 0 0 0 0 0 3 3 0 0 6 6 6 3 10 10 6 0 0 0 0 0 0 0 0 0 0 0 0 0 0 0 0 0 0 0 0 0 0 0 0
3 3 0 0 0 0 0 0 0 0 0 0 0 0 0 0 0 0 0 3 3 3 0 0 0 0 0 0 0 0 0 0 0 0 0 0 0 0 0 0 0 0 0 0 0 0 0 0 0
0 0 0 0 0 0 0 0 0 0 0 0 0 0 0 0 0 0 0 0 0 0 0 0 0 0 0 0 0 0 0 0 0 0 0 0 0 0 0 0 0 0 0 0 0 0 0 0 0
Height
5929 5929 5929 5929 5930 5930 5929 5928 5927 5926 5925 5924 5923 5922 5921 5921 5921 5923 5920 5918 5918 5918 5917 5917 5917 5917 5917 5916 5916 5915 5914 5914 5913 5913 5913 5912 5912 5912 5911 5911 5910 5910 5910 5909 5909 5908 5908 5907 5907
5929 5928 5928 5929 5929 5930 5929 5927 5927 5926 5925 5923 5922 5921 5921 5920 5920 5919 5918 5917 5917 5917 5916 5916 5916 5916 5916 5916 5915 5914 5914 5913 5913 5912 5912 5911 5911 5910 5910 5910 5909 5909 5909 5908 5908 5908 5907 5907 5906
5927 5926 5927 5927 5927 5928 5927 5926 5926 5925 5924 5923 5921 5921 5920 5919 5918 5918 5917 5916 5916 5916 5915 5915 5915 5915 5915 5914 5914 5913 5913 5912 5911 5911 5910 5910 5909 5909 5908 5908 5908 5908 5908 5907 5907 5906 5906 5906 5905
5925 5924 5925 5926 5925 5924 5924 5924 5924 5923 5922 5921 5920 5919 5919 5918 5917 5917 5916 5915 5915 5915 5914 5914 5914 5913 5913 5912 5912 5911 5911 5910 5910 5909 5908 5908 5907 5907 5906 5906 5906 5906 5906 5905 5905 5905 5904 5904 5903
5922 5922 5922 5922 5921 5921 5921 5922 5922 5921 5920 5920 5919 5918 5917 5917 5916 5916 5915 5914 5914 5914 5913 5913 5912 5912 5911 5910 5910 5909 5908 5908 5907 5907 5906 5905 5905 5904 5904 5904 5904 5904 5903 5903 5903 5902 5902 5901 5901
5919 5919 5919 5919 5917 5918 5918 5919 5919 5919 5918 5918 5917 5916 5916 5915 5915 5914 5914 5913 5913 5912 5912 5911 5910 5909 5909 5908 5907 5907 5906 5905 5905 5904 5903 5902 5902 5901 5901 5901 5901 5901 5901 5900 5900 5900 5899 5899 5898
5916 5915 5914 5913 5913 5914 5915 5916 5917 5917 5916 5916 5915 5915 5914 5914 5914 5913 5913 5912 5911 5910 5910 5909 5907 5907 5906 5905 5905 5904 5903 5902 5901 5901 5900 5899 5898 5898 5898 5897 5897 5897 5897 5897 5897 5896 5896 5895 5895
5909 5910 5908 5908 5909 5909 5911 5912 5913 5914 5914 5914 5913 5912 5912 5912 5912 5912 5911 5910 5909 5908 5907 5906 5905 5904 5903 5902 5901 5900 5899 5898 5897 5896 5896 5895 5894 5893 5893 5893 5893 5893 5893 5893 5892 5892 5892 5892 5892
5902 5905 5903 5903 5903 5905 5907 5909 5910 5910 5911 5911 5910 5910 5910 5910 5910 5909 5908 5907 5906 5905 5903 5902 5902 5900 5899 5898 5897 5896 5895 5894 5893 5891 5891 5890 5889 5888 5888 5888 5888 5888 5888 5888 5888 5888 5888 5888 5887
5895 5897 5897 5896 5898 5900 5902 5905 5906 5907 5908 5908 5908 5907 5907 5907 5907 5906 5905 5904 5902 5901 5900 5899 5898 5897 5896 5894 5893 5892 5891 5889 5888 5887 5886 5884 5883 5883 5882 5882 5882 5882 5882 5882 5883 5883 5883 5883 5882
5888 5890 5889 5891 5893 5895 5898 5901 5902 5904 5905 5905 5905 5905 5905 5904 5903 5902 5901 5900 5898 5897 5896 5895 5894 5892 5891 5890 5889 5888 5886 5885 5884 5882 5881 5879 5878 5877 5877 5877 5876 5876 5876 5877 5877 5877 5878 5878 5878
5882 5883 5885 5886 5889 5892 5894 5897 5898 5900 5901 5902 5902 5901 5901 5901 5900 5898 5897 5896 5894 5893 5892 5891 5890 5888 5887 5885 5884 5883 5881 5880 5879 5877 5876 5875 5874 5873 5872 5871 5871 5871 5871 5871 5871 5871 5872 5872 5872
5878 5880 5881 5883 5886 5888 5891 5893 5895 5896 5897 5898 5898 5898 5898 5897 5896 5894 5893 5892 5890 5889 5888 5887 5886 5885 5883 5881 5879 5878 5877 5875 5874 5873 5872 5871 5870 5869 5868 5866 5866 5866 5866 5865 5865 5865 5866 5866 5866
5876 5877 5879 5881 5883 5886 5888 5890 5892 5892 5893 5894 5894 5894 5893 5892 5892 5890 5889 5887 5886 5885 5884 5883 5882 5881 5879 5877 5876 5874 5873 5871 5870 5869 5868 5866 5865 5863 5863 5862 5861 5860 5859 5859 5859 5859 5860 5860 5860
5875 5877 5878 5879 5881 5883 5886 5887 5888 5889 5889 5889 5889 5889 5889 5888 5887 5886 5885 5883 5882 5881 5880 5879 5878 5877 5876 5874 5873 5871 5869 5868 5866 5865 5863 5861 5860 5858 5857 5856 5855 5854 5853 5853 5853 5853 5853 5853 5854
5875 5877 5879 5879 5880 5881 5884 5885 5884 5884 5885 5885 5884 5884 5884 5883 5882 5882 5881 5880 5879 5878 5877 5876 5875 5873 5872 5871 5869 5868 5866 5864 5862 5860 5858 5856 5854 5853 5851 5850 5849 5848 5847 5846 5846 5846 5846 5846 5846
5877 5879 5879 5878 5878 5879 5880 5880 5880 5880 5880 5880 5879 5879 5879 5878 5878 5878 5878 5877 5876 5876 5874 5873 5872 5870 5869 5867 5865 5863 5861 5859 5857 5855 5853 5851 5849 5847 5845 5844 5842 5841 5840 5840 5839 5839 5839 5839 5839
5880 5880 5878 5877 5877 5877 5877 5876 5876 5875 5875 5874 5874 5874 5873 5874 5874 5874 5874 5874 5874 5873 5872 5870 5869 5867 5865 5863 5861 5859 5857 5855 5852 5850 5847 5845 5843 5841 5839 5837 5836 5834 5834 5833 5832 5832 5831 5831 5831
5878 5878 5877 5876 5875 5875 5874 5873 5872 5871 5870 5869 5868 5868 5868 5869 5870 5870 5871 5871 5871 5870 5869 5867 5866 5864 5862 5859 5857 5855 5852 5850 5847 5844 5842 5839 5837 5835 5833 5831 5830 5828 5827 5826 5826 5825 5824 5824 5824
5877 5877 5876 5875 5874 5873 5872 5870 5869 5867 5865 5864 5863 5863 5864 5865 5866 5867 5868 5869 5868 5867 5866 5864 5862 5860 5858 5855 5853 5850 5847 5844 5842 5839 5837 5834 5832 5829 5827 5825 5824 5822 5821 5820 5819 5818 5817 5817 5817
5878 5877 5876 5874 5873 5872 5871 5869 5867 5864 5863 5861 5860 5861 5862 5863 5864 5865 5866 5866 5865 5864 5862 5861 5859 5857 5854 5852 5849 5846 5843 5840 5837 5835 5832 5829 5827 5824 5822 5820 5818 5816 5815 5813 5812 5811 5810 5809 5809
5878 5876 5874 5873 5872 5872 5871 5869 5866 5863 5862 5861 5860 5861 5861 5861 5862 5863 5863 5863 5862 5861 5859 5858 5856 5853 5851 5848 5845 5842 5839 5836 5833 5830 5827 5825 5822 5819 5817 5815 5813 5810 5809 5807 5805 5804 5803 5802 5801
5877 5875 5873 5872 5871 5871 5870 5868 5867 5863 5862 5861 5861 5860 5861 5861 5861 5861 5861 5861 5860 5859 5857 5855 5853 5850 5848 5845 5842 5839 5836 5833 5829 5826 5823 5820 5817 5815 5812 5810 5807 5805 5802 5800 5798 5797 5795 5794 5793
5876 5875 5873 5872 5872 5872 5869 5868 5867 5864 5863 5862 5861 5860 5860 5860 5860 5860 5860 5859 5858 5857 5855 5853 5850 5848 5845 5842 5839 5836 5833 5829 5826 5822 5819 5816 5813 5810 5807 5804 5801 5799 5796 5793 5791 5789 5787 5785 5784
5875 5875 5876 5875 5874 5872 5869 5868 5868 5865 5864 5863 5862 5861 5860 5860 5859 5859 5858 5857 5856 5854 5852 5850 5848 5845 5843 5839 5836 5833 5829 5826 5822 5818 5815 5811 5808 5804 5801 5798 5795 5792 5789 5786 5783 5780 5778 5776 5774
5875 5875 5876 5876 5875 5872 5868 5867 5867 5865 5864 5863 5862 5861 5860 5859 5858 5857 5856 5855 5853 5852 5850 5848 5845 5843 5840 5836 5833 5829 5825 5821 5817 5814 5810 5806 5802 5798 5795 5791 5788 5784 5781 5778 5774 5771 5769 5766 5764
5874 5873 5873 5873 5872 5871 5869 5867 5866 5864 5863 5862 5861 5860 5859 5858 5857 5856 5854 5853 5851 5849 5847 5845 5842 5839 5836 5833 5829 5825 5821 5816 5812 5808 5804 5800 5796 5792 5788 5784 5780 5776 5772 5768 5765 5761 5758 5755 5753
5873 5872 5871 5872 5871 5872 5870 5867 5866 5863 5862 5861 5860 5859 5858 5857 5855 5853 5852 5850 5848 5846 5844 5842 5839 5836 5832 5828 5824 5820 5815 5811 5807 5802 5798 5793 5789 5785 5780 5776 5771 5767 5762 5758 5754 5750 5747 5744 5741
5871 5870 5870 5870 5869 5870 5870 5870 5864 5862 5861 5860 5858 5857 5856 5854 5853 5851 5849 5847 5845 5843 5841 5838 5835 5832 5828 5823 5819 5814 5810 5805 5801 5796 5791 5786 5782 5777 5772 5767 5762 5757 5752 5748 5743 5739 5736 5732 5729
5868 5868 5868 5868 5867 5866 5867 5869 5861 5860 5859 5858 5857 5855 5853 5851 5850 5848 5846 5844 5842 5839 5837 5834 5830 5827 5823 5818 5814 5809 5804 5799 5794 5789 5784 5779 5774 5768 5763 5758 5752 5747 5742 5737 5732 5728 5724 5720 5716
Wind_Speed
7 5 4 3 2 3 3 4 3 2 2 2 2 3 4 4 4 4 3 3 3 3 3 2 2 2 3 4 4 4 4 3 3 2 2 2 3 3 2 2 1 2 2 2 3 3 3 3 2
9 8 7 5 4 4 6 6 4 3 1 2 2 2 3 4 4 3 3 4 3 4 4 4 4 4 5 5 5 5 5 5 5 5 5 5 5 5 5 4 4 4 4 4 5 5 5 5 4
11 11 10 9 8 8 8 8 7 5 3 3 2 2 2 3 3 4 4 4 4 4 4 5 5 6 6 6 6 7 7 7 7 7 7 7 7 8 7 7 6 6 6 6 6 7 7 7 7
14 14 14 12 12 12 11 10 9 8 6 5 4 3 3 4 4 5 5 5 5 5 6 7 8 8 8 8 8 9 9 9 9 9 9 10 10 10 9 9 8 8 7 7 8 8 8 8 9
16 16 16 15 15 14 13 12 11 10 9 7 6 5 5 5 5 6 6 6 7 7 9 10 10 10 10 10 11 10 11 11 12 12 12 11 12 11 11 10 10 9 9 9 9 9 10 11 11
18 18 18 18 19 17 16 14 13 12 12 10 8 7 6 6 7 7 8 8 9 10 11 12 13 13 13 13 14 14 14 14 14 15 14 14 13 13 12 11 11 11 11 10 11 11 12 12 12
20 21 22 22 21 20 19 16 15 14 14 13 11 9 8 7 8 9 10 10 11 12 13 15 15 16 16 16 17 17 17 17 17 17 17 17 16 15 14 14 13 13 12 12 13 13 13 13 13
23 23 24 24 23 24 21 19 17 17 16 15 15 12 10 10 10 12 13 14 14 14 15 17 18 19 19 19 19 20 20 20 21 21 21 20 19 18 17 16 16 15 15 15 15 15 15 15 15
26 25 25 25 26 26 24 22 20 19 18 18 17 15 13 13 13 15 16 17 17 18 18 19 20 21 22 22 22 22 22 23 24 24 24 23 22 21 19 18 17 17 17 17 17 17 17 17 17
27 26 26 28 27 27 25 23 21 20 20 20 19 18 16 16 17 18 19 19 19 20 20 21 21 23 24 24 25 25 25 25 25 25 24 23 23 23 22 20 19 19 19 20 19 19 19 19 19
26 27 28 27 27 26 25 23 22 22 22 21 21 19 18 19 20 21 20 20 20 20 20 20 21 23 24 25 26 26 26 26 26 26 25 25 24 23 22 22 21 21 22 22 21 20 21 20 20
21 24 26 26 25 25 25 23 23 23 23 22 22 21 21 22 22 22 21 20 19 19 19 20 21 22 24 24 24 25 25 24 23 24 24 23 23 24 23 23 23 24 24 23 23 23 23 23 23
14 18 20 21 22 23 23 23 22 22 22 22 22 23 23 23 22 22 21 20 19 19 19 19 20 20 21 21 21 22 21 21 22 22 22 23 24 24 24 24 25 25 26 26 26 26 26 25 25
8 10 13 15 17 19 20 21 22 22 22 23 23 23 22 22 22 22 20 19 18 17 17 17 17 17 18 18 19 20 20 20 20 21 21 21 22 23 24 25 26 27 27 27 27 27 26 26 26
5 5 7 10 13 15 17 18 19 20 21 22 22 22 22 21 21 20 19 17 16 15 15 15 15 15 16 17 18 18 18 18 19 20 20 21 21 22 23 24 24 25 26 28 28 28 27 28 28
6 4 4 6 8 11 13 16 18 19 20 21 21 21 21 20 20 18 17 15 15 13 13 13 13 13 14 15 16 17 18 18 19 20 20 21 22 22 23 24 24 25 26 27 27 28 28 28 28
8 4 3 5 6 8 11 15 17 18 19 20 21 21 20 19 17 16 14 13 12 11 11 12 12 13 13 14 16 16 17 18 19 20 21 21 22 23 24 24 25 25 26 26 27 28 28 29 29
4 4 4 5 6 7 10 13 15 17 18 20 21 20 19 17 15 14 11 10 10 10 10 11 11 12 13 15 16 17 18 20 21 21 22 22 23 23 23 24 24 25 26 26 27 27 28 28 28
4 4 5 7 7 8 10 13 14 15 17 19 19 17 15 14 13 11 9 8 8 9 10 10 12 13 15 16 18 19 21 22 22 22 22 23 23 23 23 24 23 24 25 25 26 26 27 27 27
7 6 7 7 7 7 9 11 12 13 14 14 13 13 13 12 10 8 6 7 8 9 10 11 13 15 17 18 20 22 23 24 24 24 23 23 23 23 23 23 23 23 24 24 25 25 26 27 27
6 6 7 8 8 8 9 11 11 11 10 8 6 7 7 6 3 3 4 6 8 9 11 13 15 17 18 20 21 22 23 23 23 23 22 22 22 22 22 22 23 23 23 24 24 24 25 26 26
6 7 7 8 7 8 9 10 10 9 6 4 2 1 1 1 2 3 5 7 9 11 13 15 17 18 20 21 21 22 22 21 21 21 21 21 21 21 21 22 22 23 23 24 25 25 26 27 27
6 7 7 7 7 8 9 8 8 6 5 4 3 2 2 3 4 4 6 8 10 12 14 16 18 19 19 19 20 20 21 21 21 21 21 20 20 20 20 21 22 23 24 25 26 26 27 28 29
7 7 7 7 7 7 8 6 6 5 5 6 5 4 4 5 5 6 8 9 11 13 15 17 17 18 18 19 20 20 20 21 21 21 21 21 21 21 21 22 23 24 25 26 27 28 29 30 31
6 5 7 7 7 8 7 6 5 5 5 5 6 6 7 7 7 8 10 11 13 14 16 17 17 18 19 20 20 20 21 21 21 21 22 22 22 23 23 24 25 25 26 27 28 29 30 31 33
6 5 3 3 5 7 8 6 6 5 6 6 7 7 8 8 9 11 12 13 14 15 16 17 18 19 20 20 20 21 21 21 22 22 23 23 24 25 26 27 27 28 28 29 30 31 32 33 34
6 5 4 4 5 5 7 7 7 7 7 7 8 8 9 10 11 12 14 15 16 16 17 18 18 19 19 20 21 22 22 23 23 24 25 25 26 27 28 29 30 31 31 32 32 33 33 34 35
7 6 5 2 4 4 8 8 9 9 8 8 9 9 11 12 13 14 15 16 16 17 17 18 19 19 20 21 22 23 24 25 25 26 27 28 28 30 31 32 33 34 34 34 34 35 35 35 36
9 8 6 5 6 3 6 9 10 10 10 10 10 11 12 14 15 15 16 17 17 17 18 19 19 20 22 23 24 25 26 27 27 28 29 30 31 32 34 35 36 36 36 36 36 36 36 36 36
10 10 8 7 8 8 7 10 13 12 11 11 12 13 14 15 16 16 16 17 17 17 18 19 20 22 23 25 26 27 28 29 30 30 31 33 34 35 36 37 38 38 38 37 37 37 36 36 36
Wind_Direction
352 339 325 314 311 314 308 316 317 331 2 32 52 57 60 61 54 47 31 21 24 14 1 349 316 282 274 271 266 264 262 261 260 257 255 257 254 254 251 254 269 284 296 302 308 311 319 325 335
330 318 300 294 285 277 283 288 288 299 332 357 26 43 53 48 47 36 17 15 9 354 339 321 303 289 277 272 268 261 257 256 257 263 268 267 267 267 267 267 269 274 282 285 286 287 289 292 294
311 302 293 290 278 265 271 279 279 281 276 298 324 349 17 18 16 1 353 354 349 336 324 311 300 291 283 276 271 266 261 260 261 264 267 268 269 269 271 271 272 275 279 281 282 282 281 280 279
297 292 284 279 271 271 271 273 271 270 271 279 296 308 337 355 350 341 341 340 332 324 316 307 299 293 287 281 275 272 271 269 268 268 268 268 268 268 270 271 271 275 279 281 280 278 278 277 274
287 283 280 274 268 266 265 265 263 262 264 267 278 294 315 332 338 337 334 329 320 312 307 303 297 293 289 285 281 278 279 278 276 274 272 269 267 266 267 268 270 274 277 279 278 278 278 276 272
278 276 270 260 263 262 259 259 258 260 261 260 264 281 306 324 328 327 323 317 311 305 302 298 293 291 289 288 286 284 283 282 281 278 274 270 266 263 263 264 267 270 273 274 276 278 279 278 274
270 268 264 259 259 257 257 254 253 258 259 258 263 272 291 309 318 319 319 314 307 299 294 290 288 286 284 285 285 285 284 282 280 279 276 272 267 263 262 262 263 267 270 271 273 275 276 276 278
264 262 261 257 252 250 253 251 251 254 255 259 261 264 284 300 309 314 316 313 306 296 288 284 282 280 280 280 281 282 281 280 278 276 274 270 266 263 261 261 262 267 268 269 272 273 273 273 274
259 255 252 249 245 246 247 248 249 251 253 257 262 271 287 299 306 310 311 308 303 295 287 282 280 278 276 276 278 278 278 277 278 277 277 271 265 264 262 262 263 267 270 269 271 273 273 274 275
254 249 246 246 245 244 245 245 247 248 253 259 267 278 291 298 304 308 307 305 300 293 286 282 281 278 276 277 278 278 278 277 279 281 279 274 268 268 266 266 270 269 271 271 270 273 275 276 277
254 246 245 244 242 241 241 242 244 247 253 261 268 280 289 295 301 304 304 301 296 292 286 282 280 279 278 278 279 281 280 280 282 281 280 278 273 270 270 271 275 275 271 271 272 274 275 275 276
256 250 246 244 241 238 239 239 242 247 253 262 270 279 286 292 297 301 301 298 293 290 285 281 283 282 280 280 283 284 283 282 284 282 281 282 280 276 272 273 274 275 272 271 273 274 274 275 276
265 256 250 246 241 237 238 238 242 248 254 260 268 277 283 289 295 298 299 297 294 291 288 285 286 287 286 288 292 293 291 288 288 287 287 286 283 282 280 279 279 277 275 273 276 277 275 274 274
285 266 254 246 240 237 238 241 246 251 257 263 270 277 282 287 293 295 296 294 293 293 292 291 290 291 293 294 296 295 295 293 291 291 292 290 288 283 281 280 280 277 275 274 276 277 275 274 273
324 285 263 249 242 239 241 244 250 256 261 267 272 277 281 285 289 291 293 292 294 294 293 293 293 296 298 298 298 299 298 298 298 297 295 293 290 288 283 283 282 281 278 276 275 274 273 273 272
9 346 297 263 251 246 246 249 255 260 264 268 272 275 278 281 284 287 288 290 293 295 296 298 299 300 300 299 300 300 301 301 299 297 295 293 291 289 287 285 283 281 279 277 276 274 273 271 270
18 5 302 289 265 254 253 256 261 264 266 268 271 273 274 274 277 282 284 288 291 294 300 304 305 305 305 306 306 306 306 305 303 302 300 298 295 291 289 287 285 282 279 277 275 274 272 271 269
323 316 315 302 280 268 267 270 270 269 269 270 271 271 270 267 273 279 279 287 292 299 305 308 308 310 310 311 311 311 310 308 307 305 303 301 299 296 292 290 287 283 280 278 276 275 273 271 269
354 330 310 304 299 291 285 281 280 276 275 274 270 267 266 265 270 272 276 283 295 304 310 314 316 317 316 316 316 315 314 313 312 311 308 305 303 301 298 295 291 287 284 281 278 276 273 272 270
358 344 323 314 307 301 300 298 295 293 289 283 270 262 259 262 270 268 277 289 307 317 320 320 320 320 320 320 319 318 317 315 313 311 309 307 304 302 300 298 295 292 289 286 283 279 276 273 271
339 332 317 316 312 309 310 314 309 308 303 298 282 260 258 262 267 277 304 318 323 326 326 325 325 323 322 320 318 318 317 315 312 311 309 307 306 304 302 299 297 294 291 288 286 283 280 277 273
327 327 323 318 322 320 319 323 321 324 319 320 326 315 327 303 324 326 330 333 331 330 328 326 324 322 321 320 319 319 317 316 316 314 312 310 309 307 304 302 299 296 294 291 289 287 284 280 276
315 323 326 323 325 327 328 328 327 337 346 357 8 9 359 354 356 354 342 334 330 328 325 324 323 323 322 322 321 319 319 319 318 316 315 314 312 310 308 305 302 299 297 294 292 289 286 283 280
318 325 335 338 341 331 323 335 338 345 0 13 18 14 1 352 355 347 335 329 327 325 324 324 325 325 323 322 321 321 320 319 318 317 315 314 313 311 310 308 306 302 300 297 295 292 289 286 282
325 349 353 348 336 310 311 324 327 335 350 1 6 7 2 353 346 338 329 325 324 322 322 322 322 322 320 320 320 321 320 319 318 317 317 315 314 313 312 311 309 306 302 300 297 294 291 287 283
319 329 309 299 304 305 305 308 313 324 334 343 346 346 344 339 333 327 322 320 320 319 318 318 318 319 319 319 320 321 321 320 319 319 319 318 316 315 314 313 311 308 304 302 299 296 292 289 285
305 311 302 319 324 328 300 299 305 316 326 332 332 330 328 325 321 317 315 315 315 314 315 315 316 318 321 322 323 323 323 322 321 320 319 318 317 316 315 313 311 309 306 304 301 297 293 289 285
285 294 300 314 299 310 311 307 301 307 314 317 318 318 317 316 314 311 310 310 310 310 312 314 316 320 323 325 326 326 325 324 323 322 320 318 317 317 316 314 312 310 307 304 302 298 295 290 286
277 284 288 286 277 275 294 292 290 297 301 305 306 308 309 309 307 306 305 306 307 308 310 314 317 320 324 327 328 328 327 326 324 323 322 320 319 318 317 315 313 310 308 305 302 299 296 291 287
270 275 282 286 286 283 282 285 286 289 291 297 302 304 305 305 303 302 302 303 305 307 310 314 318 321 325 327 329 329 328 326 325 324 323 321 320 319 317 315 313 310 308 305 303 300 297 293 288